Regional Weather Roundup
Issued by NWS

Home | Current Version | Previous Version | Text Only | Print | Product List | Glossary Off
Versions: 1 2 3 4 5 6 7 8 9 10 11 12 13 14 15 16 17 18 19 20 21 22 23 24 25 26 27

000
ASUS45 KTFX 050210
RWRMT
MONTANA REGIONAL WEATHER ROUNDUP
NATIONAL WEATHER SERVICE GREAT FALLS MT
800 PM MDT WED MAY 04 2016

NOTE: "FAIR" INDICATES FEW OR NO CLOUDS BELOW 12000 FEET WITH NO
SIGNIFICANT WEATHER AND/OR OBSTRUCTIONS TO VISIBILITY.

MTZ001>007-043-050300-
WEST OF THE DIVIDE

CITY           SKY/WX    TMP DP  RH WIND       PRES   REMARKS
KALISPELL      PTCLDY    68  46  45 S7        29.85F
MISSOULA       CLOUDY    71  42  35 NW5       29.86F
BUTTE          CLOUDY    68  26  20 NW3       30.00F
MULLAN PASS    CLOUDY    57  38  48 N5        30.00F
ANACONDA         N/A     66  28  24 S5        29.96S
DEER LODGE       N/A     64  37  36 CALM      29.95F
EUREKA           N/A     73  39  29 SW5       29.84S
HAMILTON         N/A     73  37  27 CALM      29.87S
LIBBY            N/A     73  43  33 CALM      29.84S
PLAINS           N/A     73  44  35 CALM      29.85F
$$

MTZ008-052>055-050300-
SOUTHWEST MONTANA

CITY           SKY/WX    TMP DP  RH WIND       PRES   REMARKS
BOZEMAN        CLOUDY    72  31  22 SW6       29.95S
DILLON         CLOUDY    69  27  20 S14       29.97F
ENNIS          CLEAR     63  28  27 SE13      30.06S
THREE FORKS      N/A     68   6   9 CALM      29.94
TWIN BRIDGES     N/A     68  32  26 SE7       29.97S
$$

MTZ009-010-012-014-046-048-049-054-050300-
EAST SLOPES AND CENTRAL MONTANA

CITY           SKY/WX    TMP DP  RH WIND       PRES   REMARKS
CUT BANK         N/A     69  36  29 W10       29.88S
GREAT FALLS    PTCLDY    73  40  30 W7        29.88R
MALMSTROM AFB  PTCLDY    75  33  21 W7        29.87S
HELENA         CLEAR     76  30  18 W8        29.88F
CHOTEAU          N/A     70  43  37 NE6       29.90S
CONRAD           N/A     70  44  38 W2        29.92S
$$

MTZ011-013-016-021-045-047-050-051-050300-
NORTH CENTRAL MONTANA

CITY           SKY/WX    TMP DP  RH WIND       PRES   REMARKS
HAVRE          CLEAR     75  47  36 S6        29.81S
LEWISTOWN      CLEAR     72  35  25 S8        29.90F
N BAR RANCH      N/A     68  34  28 SW7       29.95S
$$

MTZ017>020-022>027-061-062-050300-
NORTHEAST MONTANA

CITY           SKY/WX    TMP DP  RH WIND       PRES   REMARKS
GLASGOW        CLEAR     75  42  30 SE8       29.82S
JORDAN           N/A     74  53  48 CALM      29.84F
SIDNEY         CLEAR     73  43  33 SW6       29.86S
WOLF POINT     CLEAR     79  41  25 CALM      29.82F
POPLAR           N/A     81  43  26 CALM      29.84S
SCOBEY           N/A     76  36  23 SW1       29.86S
$$

MTZ028>42-056>058-050300-
SOUTHCENTRAL AND SOUTHEAST MONTANA

CITY           SKY/WX    TMP DP  RH WIND       PRES   REMARKS
BAKER          CLEAR     67  45  45 S13       29.94F
BILLINGS       PTCLDY    78  33  19 SE9       29.91F
LIVINGSTON     CLOUDY    69  32  25 W7        29.95S
MILES CITY     CLEAR     79  33  19 SE6       29.87F
EKALAKA          N/A     69  39  33 SE10      29.96S
FORSYTH          N/A     79  43  27 CALM      29.88S
LAUREL           N/A     75  40  28 CALM      29.91
ROUNDUP          N/A     75  32  20 CALM      29.83S
$$

REGIONAL REPORTS...DAKOTAS

CITY           SKY/WX    TMP DP  RH WIND       PRES   REMARKS
WILLISTON      CLEAR     75  39  27 S5        29.85F
MINOT          CLEAR     78  38  23 S5        29.86F
DICKINSON      CLEAR     64  42  44 S7        29.92F
BEACH            N/A     66  37  34 S9        29.95S
CROSBY           N/A     72  39  30 S8        29.86S
TIOGA            N/A     66  37  34 S8        29.92F
WATFORD CITY     N/A     72  39  30 S8        29.88S
BISMARCK       CLEAR     63  48  58 S8        29.94S
GRAND FORKS    MOCLDY    65  30  27 SE7       29.93F
FARGO          PTCLDY    62  22  21 E3        29.96S
BUFFALO SD       N/A     67  43  41 SE13      29.92S
RAPID CITY     CLEAR     62  44  51 SE8       30.01S
$$

REGIONAL REPORTS...WYOMING/IDAHO/WASHINGTON

CITY           SKY/WX    TMP DP  RH WIND       PRES   REMARKS
GILLETTE       CLOUDY    63  45  51 CALM      29.99S
SHERIDAN       CLEAR     69  44  40 S3        29.96S
BUFFALO WY     CLEAR     68  37  32 NW6       30.03R
CODY           CLOUDY    70  30  23 SE7       30.00S
YELLOWSTONE LA   N/A     50  33  52 CALM      30.20F
IDAHO FALLS    CLOUDY    67  36  31 SW7       30.01S
SALMON         CLOUDY    70  41  35 S5        29.87R
BOISE          CLOUDY    78  37  22 S3        29.80F
SPOKANE        CLOUDY    71  44  37 N9        29.83F
$$

REGIONAL REPORTS...ALBERTA

CITY           SKY/WX    TMP DP  RH WIND       PRES   REMARKS
EDMONTON       PTCLDY    72  41  33 N15G23    29.70R
CALGARY        PTCLDY    75  32  20 W9        29.78S
LETHBRIDGE     PTCLDY    75  34  22 W18       29.81S
MEDICINE HAT   MOCLDY    75  43  31 SW8       29.74S
WATERTON GATE    N/A     63  39  42 E2          N/A
MILK RIVER       N/A     70  39  32 W9          N/A
ONEFOUR          N/A     72  37  28 SW6         N/A
$$

REGIONAL REPORTS...SASKATCHEWAN

CITY           SKY/WX    TMP DP  RH WIND       PRES   REMARKS
SWIFT CURRENT  CLEAR     77  32  19 SW3       29.80S
REGINA         PTCLDY    77  37  24 W8        29.76S
SASKATOON      PTCLDY    75  34  22 W9        29.71S
CYPRESS HILLS    N/A     66  37  34 S6          N/A
VAL MARIE        N/A     73  37  27 S9          N/A
ROCKGLEN         N/A     72  37  28 W5          N/A
$$




USA.gov is the U.S. government's official web portal to all federal, state and local government web resources and services.